Location: Allos
(44.2333°N, 6.6333°E)
Time: 06:09:16
(UTC+00:00)

BREEZE-M DEB (TANK) - Pass Details

Date: 01 December 2020
Orbit: 433 x 13849 km, 45.9° (Epoch: 27 January)

Event Time Altitude Azimuth Distance (km) Brightness Sun altitude
Rises 17:36:18 0° 227° (SW) 3,730 7.6 -17.5°
Reaches altitude 10° 17:39:45 10° 217° (SW) 2,069 6.0 -18.1°
Maximum altitude 17:43:11 29° 154° (SSE) 872 3.2 -18.7°
Enters shadow 17:43:24 29° 144° (SE) 868 3.1 -18.7°
